This is the latest recevied weather packets stored in our database for station/object M0XZS-2. If no packets are shown the sender has not sent any weather packets the latest 10 day(s).
| Time | Temp. | Humidity | Pressure | Rain* | Wind** | Luminosity | Snow |
|---|---|---|---|---|---|---|---|
| 1777464444 | 23.89° C | 35% | 1034.7 hPa | - | - | - | - |
| 1777463544 | 23.89° C | 35% | 1034.7 hPa | - | - | - | - |
| 1777462644 | 23.33° C | 35% | 1034.8 hPa | - | - | - | - |
| 1777461744 | 23.33° C | 36% | 1035 hPa | - | - | - | - |
| 1777460844 | 22.78° C | 36% | 1035.1 hPa | - | - | - | - |
| 1777459944 | 22.22° C | 37% | 1034.9 hPa | - | - | - | - |
| 1777459044 | 21.67° C | 37% | 1035 hPa | - | - | - | - |
| 1777458144 | 21.11° C | 37% | 1035 hPa | - | - | - | - |
| 1777457244 | 20.56° C | 39% | 1035.1 hPa | - | - | - | - |
| 1777456343 | 20° C | 41% | 1035 hPa | - | - | - | - |
| 1777455443 | 18.89° C | 40% | 1035 hPa | - | - | - | - |
| 1777454543 | 18.33° C | 41% | 1034.9 hPa | - | - | - | - |
| 1777453643 | 17.78° C | 43% | 1034.8 hPa | - | - | - | - |
| 1777452743 | 16.11° C | 45% | 1034.8 hPa | - | - | - | - |
| 1777451844 | 15° C | 48% | 1034.9 hPa | - | - | - | - |
| 1777450944 | 14.44° C | 49% | 1034.9 hPa | - | - | - | - |
| 1777450044 | 13.89° C | 49% | 1034.9 hPa | - | - | - | - |
| 1777449144 | 13.33° C | 50% | 1034.9 hPa | - | - | - | - |
| 1777448244 | 12.22° C | 49% | 1034.9 hPa | - | - | - | - |
| 1777447344 | 11.67° C | 50% | 1034.8 hPa | - | - | - | - |
| 1777446444 | 11.11° C | 48% | 1034.8 hPa | - | - | - | - |
| 1777445544 | 10.56° C | 49% | 1034.6 hPa | - | - | - | - |
| 1777444644 | 10° C | 48% | 1034.5 hPa | - | - | - | - |
| 1777443744 | 10° C | 48% | 1034.6 hPa | - | - | - | - |
| 1777442844 | 9.44° C | 48% | 1034.5 hPa | - | - | - | - |
* Rain since midnight (hover to see other rain measurements)
** Current wind speed in m/s (hover to see current wind gust speed)